Regional Weather Roundup
Issued by NWS Wakefield, VA

Home | Current Version | Previous Version | Graphics & Text | Print | Product List | Glossary On
Versions: 1 2 3 4 5 6 7 8 9 10 11 12 13 14 15 16 17 18 19 20 21 22 23 24 25 26 27 28 29 30 31 32 33 34 35 36 37 38 39 40 41 42 43 44 45 46 47 48 49 50
000
ASUS41 KAKQ 190214
RWRAKQ

REGIONAL WEATHER ROUNDUP
NATIONAL WEATHER SERVICE WAKEFIELD VA
1000 PM EDT WED APR 18 2018

Note: "fair" indicates few or no clouds below 12,000 feet with no
significant weather and/or obstructions to visibility. * = Denotes
station may not report precipitation (e.g., rain,snow,etc.),
thunder or fog.

VAZ042-051-052>054-056-190300-
NORTHERN VIRGINIA

CITY           SKY/WX    TMP DP  RH WIND       PRES   REMARKS
WASH NATIONAL  FAIR      53  37  54 S5        29.76S
DULLES         FAIR      55  39  54 E10       29.73S
FORT BELVOIR   FAIR      53  38  56 E3        29.74F
QUANTICO       FAIR      55  43  63 SE6       29.75S
FREDERICKSBRG* FAIR      53  45  75 E5        29.72F
STAFFORD*      FAIR      53  44  71 E7        29.76F
WARRENTON      FAIR      55  38  54 E7        29.72S
CULPEPER*      FAIR      56  39  52 E5        29.73S
MANASSAS*      FAIR      55  42  61 SE9       29.74R
LEESBURG*      FAIR      55  39  54 E5        29.74F
WINCHESTER     FAIR      50  37  62 CALM      29.73F
FRONT ROYAL*   FAIR      52  41  66 CALM      29.70S
LURAY*         FAIR      55  41  58 N5        29.69S
$$

VAZ048-049-060>072-079>083-190300-
CENTRAL AND SOUTH CENTRAL VIRGINIA

CITY           SKY/WX    TMP DP  RH WIND       PRES   REMARKS
RICHMOND       FAIR      55  49  80 E9        29.71S
CHESTERFIELD*  FAIR      60  48  64 E9        29.71R
PETERSBURG*    FAIR      54  49  82 CALM      29.71R
HANOVER        FAIR      56  45  66 E7        29.72S
TAPPAHANNOCK*  FAIR      51  47  84 E9        29.74F
QUINTON*       FAIR      52  47  82 E9        29.73S
CHARLOTTSVILLE FAIR      60  41  49 N8        29.70R
GORDONSVILLE*  FAIR      58  44  57 NE7       29.70S
ORANGE*        FAIR      55  39  54 E10       29.71S
LOUISA*        FAIR      58  42  56 E7        29.73S
BUMPASS*       FAIR      55  42  63 E6        29.70F
FARMVILLE*     FAIR      69  49  48 SE3       29.66S
CREWE*         FAIR      59  55  88 CALM      29.68F
FORT PICKETT*  FAIR      62  51  66 S9        29.69F
CHASE CITY*    FAIR      66  48  52 CALM      29.70S
CLARKSVILLE*   FAIR      64  46  52 S5        29.69F
SOUTH HILL*    FAIR      63  52  66 S6        29.76R
LAWRENCEVILLE* FAIR      63  50  61 CALM      29.70R
EMPORIA*       FAIR      57  52  82 CALM      29.72S
$$

VAZ088>098-190300-
SOUTHEAST VIRGINIA

CITY           SKY/WX    TMP DP  RH WIND       PRES   REMARKS
NORFOLK        FAIR      54  48  80 E5        29.74S
VIRGINIA BEACH FAIR      50  49  96 E6        29.74S
NORFOLK NAVAL  FAIR      54  47  77 E6        29.75S
WEST POINT*    FAIR      49  45  83 E9        29.75F
SALUDA*        FAIR      49  47  91 E8G16     29.76F
NEWPORT NEWS   FAIR      51  47  86 E7        29.74S
LANGLEY AFB    NOT AVBL
FORT EUSTIS    FAIR      53  47  81 E6        29.71S
WILLIAMSBURG*  FAIR      52  46  82 CALM      29.75S
HR EXEC AP*    FAIR      54  49  83 SE5       29.74S
FRANKLIN*      FAIR      62  53  70 SE6       29.72S
US460-WAKEFLD  FAIR      58  51  78 CALM      29.72S
$$

VAZ020-022-025-037-045-190300-
WEST CENTRAL AND SOUTHWEST VIRGINIA

CITY           SKY/WX    TMP DP  RH WIND       PRES   REMARKS
STAUNTON*      FAIR      56  44  63 NW6       29.70S
WAYNESBORO*    FAIR      64  45  49 SE5       29.68S
HOT SPRINGS VA FAIR      65  37  36 SW17      29.76S
LYNCHBURG      FAIR      66  44  45 S5        29.68S
DANVILLE       FAIR      66  43  43 SW5       29.70S
SOUTH BOSTON*  FAIR      69  42  36 S3        29.69S
MARTINSVILLE   FAIR      74  36  25 SW6       29.73S
ROANOKE        FAIR      73  41  31 S6        29.70R
BLACKSBURG     FAIR      71  48  43 SW12G26   29.75F
DUBLIN*        FAIR      70  50  47 SW17      29.75S
MARION*        FAIR      68  52  57 W17G26    29.80S
HILLSVILLE*    FAIR      66  38  35 SW9       29.78S
RICHLANDS*     FAIR      67  19  15 SW7G17    29.80R
WISE*          FAIR      68  54  60 SW20G25   29.82R
ABINGDON*      MOCLDY    72  55  53 W17G30    29.80S
$$

MDZ021>025-VAZ099-100-190300-
SOUTHERN MARYLAND AND THE DELMARVA PENINSULA

CITY           SKY/WX    TMP DP  RH WIND       PRES   REMARKS
PATUXENT RIVER FAIR      53  47  79 SE14      29.76F
BAY BRIDGE APT FAIR      52  43  71 SE3       29.76F
LEONARDTOWN    FAIR      50  43  76 E5        29.77F
DOVER          MOCLDY    48  45  87 E3        29.78F
GEORGETOWN     FAIR      49  41  74 S6        29.80S
EASTON         CLEAR     54  37  54 SE5       29.81F
CAMBRIDGE      PTCLDY    50  41  71 SE6       29.77F
SALISBURY      FAIR      46  41  82 SE6       29.79F
TANGIER        NOT AVBL
OCEAN CITY     FAIR      47  42  83 S6        29.81F
WALLOPS ISLAND FAIR      50  44  80 SE10      29.80F
ACCOMACK*      FAIR      49  43  80 SE9       29.78S
$$

NCZ012>017-030>032-190300-
NORTH CENTRAL AND EASTERN NORTH CAROLINA

CITY           SKY/WX    TMP DP  RH WIND       PRES   REMARKS
ROANOKE RAPIDS FAIR      68  50  52 S5        29.70S
RALEIGH        FAIR      73  41  31 SW21G26   29.73S
ELIZABETH CITY FAIR      64  55  72 S7        29.74S
AHOSKIE*       FAIR      62  52  69 S3        29.72S
EDENTON*       FAIR      67  56  70 S10       29.75R
CURRITUCK*     NOT AVBL
KILL DEVIL HLS FAIR      62  55  79 S6        29.75S
MANTEO         FAIR      63  57  80 SW15      29.77S
CAPE HATTERAS  FAIR      66  58  75 SW21G32   29.81S
TARBORO*       NOT AVBL
GOLDSBORO      FAIR      73  42  33 SW9       29.75R
WASHINGTON     FAIR      68  54  62 S7        29.76R
GREENVILLE     FAIR      72  46  40 SW7       29.77R
NEW BERN       FAIR      63  53  70 S12       29.80S
WILMINGTON     FAIR      67  51  56 SW18G25   29.83S
$$

VAZ048-190300-
ELSEWHERE

CITY           SKY/WX    TMP DP  RH WIND       PRES   REMARKS
HARRISBURG PA  CLOUDY    50  38  63 S3        29.75R
BALTIMORE      FAIR      51  40  65 SE3       29.75S
ANNAPOLIS      FAIR      53  48  83 E3        29.76F
ANDREWS AFB    FAIR      50  37  60 SE9       29.74F
PHILADELPHIA   MOCLDY    50  37  61 CALM      29.79S
HENDERSON NC   FAIR      65  40  39 SW8       29.72R
GREENSBORO     FAIR      72  41  32 SW13      29.73S
ROCKY MOUNT    FAIR      71  43  36 S10       29.73R
$$

VAZ100-190300-
MARINE

STATION/POSITION TIME  TEMP    WIND        PRES    WAVE   SWELL
                       AIR SEA DIR/SP/G            HT/PER HT/PER
                 (UTC) (F)     (DEG/KT/KT) (MB)    (FT/S) (FT/S)
BRANDYWINE LGT   0142   49     180/ 15/ 17 1009.2F
CAPE MAY NJ      0148   48 50  170/  7/ 11 1008.7F
LEWES DE         0142   50 50  180/  7/  9 1008.9F
15NM E FENWICK I 0150   45 46  160/ 12/ 12 1009.6F   3/ 7   2/ 7
OCEAN-CITY-INLET 0142   48 49  180/  8/ 10 1009.8F
WACHAPREAGUE VA  0142   50 57  110/ 11/ 13 1009.1F
THOMAS POINT MD  0200   51 51  150/  7/  7 1008.7F
GOOSES REEF MD   0200   53     140/  8/ 10 1008.2
COVE POINT MD    0142   52     160/ 11/ 13 1008.4F
SOLOMONS ISLAND  0142   52 53  120/ 11/ 12 1007.5F
BISHOPS HEAD MD  0142   51 57  120/ 13/ 14 1008.6F
PINEY POINT MD   0142          150/ 17/ 19   N/A
POTOMAC MD       0200   50 52  140/ 14/ 17 1009.4    2/ 3
CAMBRIDGE MD     0142   53 54              1008.9F
LEWISETTA VA     0142   51 54  130/ 16/ 17 1007.8F
RAPPAHANNOCK LGT 0142          100/ 13/ 14 1008.7R
YORK RVR RNG VA  0142   51     120/ 16/ 17 1008.0S
YORKTOWN VA      0142   53 56  100/ 10/ 15 1007.1R
DOMINION TERM VA 0142   57      90/  8/ 10 1007.2R
KIPTOPEKE VA     0142      54  130/  9/ 12   N/A
CAPE HENRY VA    0142   51     120/ 10/ 13   N/A
WILLOUBY STN VA  0142   54      90/ 10/ 11 1007.1R
S CRANEY ISL VA  0142   56     110/  6/  7 1006.8F
CAPE HENRY BUOY  0200      51                N/A     3/ 4
64NM E OF VA BCH 0150   54 50  150/  8/ 10 1008.6F   3/ 7   3/ 7
DUCK PIER NC     0142   65 50  190/ 14/ 17 1006.7F
44100 DUCK FRF   0115      50                N/A     2/ 9   2/15
44056 DUCK FRF   0200      49                N/A     2/ 9   2/11
OREGON INLET NC  0142   64 61  200/ 19/ 23 1007.9F
HATTERAS NC      0142   65 62  220/ 17/ 21 1009.1F
DIAMOND SHLS NC  0200   69 64  220/ 23/ 29 1010.1
CAPE LOOKOUT NC  0200          230/ 12/ 16 1010.6R
$$



USA.gov is the U.S. government's official web portal to all federal, state and local government web resources and services.